Home   Weather   Fukuoka   Past weeks

Flag for Japan Past Weather in Fukuoka, Japan — Yesterday and Last 2 Weeks

Now
39 °F

Scattered clouds.


Feels Like: 31 °F
Forecast: 29 / 51 °F
Wind: 15 mph from South

Location: Fukuoka Airport

Current Time: Jan 25, 2017 at 10:42:48 am

Latest Report: Jan 25, 2017 at 10:00 am


Visibility: N/A

Pressure: 30.48 "Hg

Humidity: 48%

Dew Point: 21 °F

Location of FukuokaLocation

Past Weather in Fukuoka — Graph

°F

Fukuoka Temperature Yesterday

Maximum temperature yesterday: 43 °F (at 1:30 pm)
Minimum temperature yesterday: 30 °F (at 11:00 pm)
Average temperature yesterday: 37 °F

High & Low Weather Summary for the Past Weeks

 TemperatureHumidityPressure
High57 °F (Jan 18, 2:30 pm)93% (Jan 17, 3:00 am)30.48 "Hg (Jan 17, 3:00 am)
Low28 °F (Jan 25, 5:00 am)29% (Jan 13, 12:00 pm)29.89 "Hg (Jan 13, 4:00 pm)
Average42 °F55%30.19 "Hg
* Reported Jan 10 9:00 am — Jan 25 9:30 am, Fukuoka, Weather by CustomWeather, © 2017

Note: Actual official high and low records may vary slightly from our data, if they occured in-between our weather recording intervals... More about our weather records

Advertising

Fukuoka Weather History for the Previous 24 Hours

Scroll right to see more
 ConditionsComfort  
Time TempWeatherWind HumidityBarometerVisibility
9:30 am
Wed, Jan 25
37 °FSunny.12 mph52%30.48 "Hg10 mi
9:00 am36 °FSunny.8 mph56%30.48 "Hg10 mi
8:30 am32 °FSunny.8 mph64%30.48 "Hg10 mi
8:00 am30 °FSunny.6 mph69%30.48 "Hg10 mi
7:30 am30 °FSunny.7 mph69%30.48 "Hg10 mi
7:00 am28 °FClear.2 mph69%30.48 "Hg10 mi
6:30 am30 °FClear.6 mph69%30.45 "Hg10 mi
6:00 am30 °FClear.6 mph69%30.45 "Hg10 mi
5:30 am30 °FClear.6 mph69%30.45 "Hg10 mi
5:00 am28 °FClear.2 mph69%30.42 "Hg10 mi
4:30 am30 °FClear.1 mph69%30.45 "Hg10 mi
4:00 am30 °FClear.1 mph69%30.45 "Hg10 mi
3:30 am30 °FClear.5 mph64%30.48 "Hg10 mi
3:00 am30 °FClear.5 mph64%30.45 "Hg10 mi
2:30 am32 °FClear.5 mph64%30.48 "Hg10 mi
2:00 am30 °FClear.5 mph69%30.48 "Hg10 mi
1:30 am32 °FClear.2 mph64%30.45 "Hg10 mi
1:00 am32 °FClear.5 mph60%30.45 "Hg10 mi
12:30 am32 °FClear.3 mph60%30.48 "Hg10 mi
12:00 am32 °FClear.5 mph64%30.48 "Hg10 mi
11:30 pm
Tue, Jan 24
30 °FClear.5 mph75%30.48 "Hg10 mi
11:00 pm30 °FClear.6 mph69%30.45 "Hg10 mi
10:30 pm32 °FClear.7 mph64%30.45 "Hg10 mi
10:00 pm34 °FClear.5 mph56%30.45 "Hg10 mi
9:30 pm34 °FClear.6 mph56%30.45 "Hg10 mi
9:00 pm36 °FClear.8 mph56%30.48 "Hg10 mi
8:30 pm37 °FClear.3 mph45%30.45 "Hg10 mi
8:00 pm39 °FPassing clouds.5 mph39%30.45 "HgN/A
7:30 pm39 °FClear.5 mph39%30.45 "Hg10 mi
7:00 pm39 °FPassing clouds.5 mph36%30.45 "HgN/A
6:30 pm37 °FClear.6 mph38%30.45 "Hg10 mi
6:00 pm39 °FPassing clouds.7 mph36%30.45 "HgN/A
5:30 pm39 °FSunny.8 mph33%30.42 "Hg10 mi
5:00 pm39 °FSunny.10 mph39%30.42 "Hg10 mi
4:30 pm41 °FPassing clouds.9 mph33%30.42 "HgN/A
4:00 pm41 °FPassing clouds.9 mph36%30.42 "HgN/A
3:30 pm41 °FScattered clouds.12 mph31%30.42 "HgN/A
3:00 pm41 °FPartly sunny.12 mph31%30.42 "HgN/A
2:30 pm41 °FPartly sunny.13 mph33%30.42 "HgN/A
2:00 pm41 °FScattered showers. Partly sunny.15 mph33%30.42 "HgN/A
1:30 pm43 °FScattered showers. Partly sunny.13 mph31%30.39 "HgN/A
1:00 pm41 °FScattered showers. Partly sunny.15 mph36%30.42 "HgN/A
12:30 pm41 °FScattered showers. Partly sunny.14 mph36%30.42 "HgN/A
12:00 pm39 °FBroken clouds.12 mph42%30.42 "HgN/A
11:30 am39 °FScattered showers. Broken clouds.12 mph42%30.45 "HgN/A
11:00 am39 °FScattered showers. Broken clouds.14 mph42%30.45 "HgN/A
10:30 am39 °FSnow flurries. Broken clouds.12 mph45%30.45 "HgN/A
10:00 am39 °FScattered showers. Broken clouds.13 mph45%30.45 "HgN/A
Weather by CustomWeather, © 2017

See weather overviewHow to use our weather pages